Tracking 19245 objects as of 14-Aug-2018
HD Live streaming from Space Station
objects crossing your sky now

FENGYUN 1C DEB

Track FENGYUN 1C DEB now!
10-day predictions


NORAD ID: 30092
Int'l Code: 1999-025QV
Perigee: 727.5 km
Apogee: 861.0 km
Inclination: 98.7 °
Period: 100.6 minutes
Semi major axis: 7165 km
RCS: 0.046 m2 (small)
Launch date: May 10, 1999
Source: People's Republic of China (PRC)
Launch site: Taiyaun Space Center, China (TSC)

Note: This is SATELLITE DEBRIS
aabbcc
Your satellite tracking list
Your tracking list is empty




NASA's NSSDC Master Catalog

Two Line Element Set (TLE):
1 30092U 99025QV  18224.86031928 +.00000148 +00000-0 +69408-4 0  9997
2 30092 098.6924 324.8030 0093158 199.8247 278.7602 14.31379171603716
Source of the keplerian elements: AFSPC